[[{"header":{"parameterUnit":"m.s-1","parameterCategory":1,"la1":30.2991,"la2":30.254,"lo1":-89.0895,"lo2":-89.0444,"dy":0.0017,"dx":0.0017,"nx":28,"ny":28,"refTime":"2024-10-15T21:00:00:Z","depth":0,"parameterNumber":2,"parameterNumberName":"U-component_of_WINDS"},"data":[0,0,0,0,0,0,0,0,0,0,0,0,0,0,0,0,0,0,0,0,0,0,0,0,0,0,0,0,0,0,0,0,0,0,0,0,0,0,0,0,0,0,0,0,0,0,0,0,0,0,0,0,0,0,0,0,0,0,-4.5048,-4.5049,0,-4.5129,-4.513,-4.5131,-4.4954,-4.4948,-4.4942,-4.4937,-4.5023,-4.503,-4.5038,0,0,0,0,0,0,0,0,0,0,0,0,0,-4.4741,-4.4748,-4.5048,-4.5049,-4.505,-4.5129,-4.513,-4.5131,-4.4955,-4.4948,-4.4941,-4.4934,-4.502,-4.5029,-4.5038,0,0,0,0,0,0,0,0,0,0,0,0,0,-4.4854,-4.475,-4.5048,-4.4971,-4.4965,-4.5129,-4.513,-4.5131,-4.4956,-4.4948,-4.4939,-4.4931,-4.5017,-4.5028,-4.5039,-4.5281,0,0,-4.5074,-4.5079,0,0,0,0,0,0,0,0,-4.4848,-4.4865,-4.4982,-4.4977,-4.4971,-4.5022,-4.5053,-4.5182,-4.4958,-4.496,-4.4937,-4.4927,-4.503,-4.5039,-4.5074,-4.5285,-4.5289,-4.5075,-4.5082,-4.5087,-4.509,0,0,0,0,0,0,0,-4.484,-4.4861,-4.508,-4.4984,-4.4977,-4.4933,-4.494,-4.5077,-4.5042,-4.4959,-4.4946,-4.4958,-4.5025,-4.5063,-4.5074,-4.529,-4.5075,-4.5085,-4.5092,-4.5097,-4.5703,-4.5712,0,0,0,0,0,0,-4.4842,-4.4856,-4.5077,-4.5082,-4.4887,-4.4946,-4.4953,-4.5015,-4.504,-4.5035,-4.4965,-4.495,-4.5048,-4.5061,-4.5077,-4.5361,-4.5087,-4.5098,-4.5104,-4.5694,-4.5705,-4.5715,0,0,0,0,0,0,-4.4836,-4.4863,-4.5074,-4.4966,-4.4989,-4.496,-4.5031,-4.5021,-4.5058,-4.5045,-4.5038,-4.5011,-4.5042,-4.5061,-4.5231,-4.5362,-4.5103,-4.5113,-4.5683,-4.5697,-4.571,-4.5933,0,0,0,0,0,0,-4.4828,-4.4862,-4.4954,-4.4969,-4.4996,-4.5228,-4.5039,-4.5028,-4.5078,-4.5058,-4.5085,-4.5082,-4.5036,-4.5215,-4.5243,-4.5373,-4.5122,-4.5671,-4.569,-4.5706,-4.5914,-4.5952,-4.5986,0,0,0,0,0,-4.4818,-4.5014,-4.496,-4.4987,-4.511,-4.5236,-4.5251,-4.5194,-4.5089,-4.5181,-4.5172,-4.5081,-4.5343,-4.5234,-4.5264,-4.5399,-4.5663,-4.5684,-4.5705,-4.5897,-4.5945,-4.5985,0,0,0,0,0,0,-4.5017,-4.5015,-4.4954,-4.5161,-4.52,-4.5206,-4.532,-4.5246,-4.5316,-4.5295,-4.5222,-4.5229,-4.5414,-4.5423,-4.5303,-4.5634,-4.5485,-4.5513,-4.5622,-4.5666,-4.5702,-4.5697,-4.5132,0,0,0,0,0,-4.5085,-4.5187,-4.518,-4.5363,-4.5385,-4.535,-4.5403,-4.5355,-4.5393,-4.5409,-4.5412,-4.5452,-4.5543,-4.5605,-4.5688,-4.5913,-4.5917,-4.6021,-4.6057,-4.6086,-4.6112,-4.6231,-4.6277,-4.5784,-4.5784,-4.5783,0,0,-4.5226,-4.5238,-4.5307,-4.5404,-4.5428,-4.5536,-4.5365,-4.5487,-4.5566,-4.5427,-4.5588,-4.5592,-4.5632,-4.5832,-4.5919,-4.5845,-4.6248,-4.6113,-4.6137,-4.6146,-4.6257,-4.6304,-4.6346,-4.5798,-4.5795,-4.5793,0,0,-4.554,-4.5559,-4.5713,-4.574,-4.5779,-4.5753,-4.5791,-4.5807,-4.5804,-4.5964,-4.5862,-4.5955,-4.6114,-4.6147,-4.6184,-4.6508,-4.6426,-4.6537,-4.6726,-4.6843,-4.6882,-4.6916,-4.7032,-4.7074,-4.6562,-4.6562,-4.6563,0,-4.5711,-4.5869,-4.5802,-4.5931,-4.5976,-4.5853,-4.6009,-4.6039,-4.6104,-4.6138,-4.6053,-4.6248,-4.6267,-4.6471,-4.655,-4.6584,-4.6625,-4.6534,-4.6881,-4.6915,-4.6946,-4.7055,-4.7099,-4.6575,-4.6574,-4.6573,-4.6571,0,-4.6078,-4.6189,-4.631,-4.6373,-4.6432,-4.6574,-4.6528,-4.6596,-4.6543,-4.6527,-4.6691,-4.6708,-4.6792,-4.6837,-4.6787,-4.7035,-4.6987,-4.6893,-4.6742,-4.7007,-4.7109,-4.715,-4.6594,-4.659,-4.6586,-4.6582,0,0,-4.6522,-4.6545,-4.659,-4.6617,-4.6649,-4.6734,-4.687,-4.6951,-4.701,-4.7058,-4.717,-4.7306,-4.7219,-4.7262,-4.7214,-4.7317,-4.7572,-4.7209,-4.7209,-4.7277,-4.7846,-4.7917,-4.7967,-4.7517,-4.7525,-4.7531,-4.7843,0,-4.6832,-4.7065,-4.7008,-4.7239,-4.734,-4.7224,-4.7342,-4.7375,-4.7363,-4.7448,-4.7434,-4.7532,-4.7409,-4.7434,-4.753,-4.7521,-4.7685,-4.7497,-4.7622,-4.7627,-4.7617,-4.802,-4.8096,-4.839,-4.7882,-4.7889,-4.7893,0,-4.7226,-4.7287,-4.7529,-4.7543,-4.7583,-4.7691,-4.7759,-4.7841,-4.7876,-4.786,-4.7907,-4.7838,-4.7972,-4.7819,-4.8003,-4.7877,-4.7924,-4.7927,-4.7937,-4.7947,-4.7777,-4.8042,-4.8482,-4.8526,-4.7955,-4.795,-4.7946,0,-4.7526,-4.7669,-4.7831,-4.7858,-4.7879,-4.7957,-4.7969,-4.7995,-4.8047,-4.8107,-4.814,-4.8216,-4.8258,-4.8318,-4.8271,-4.8164,-4.8463,-4.8306,-4.8454,-4.8456,-4.8524,-4.8521,-4.8978,-4.8553,-4.8553,-4.8552,-4.8551,0,-4.7879,-4.8031,-4.7966,-4.8066,-4.8233,-4.8165,-4.8332,-4.8331,-4.8355,-4.8453,-4.8357,-4.8451,-4.8383,-4.8472,-4.8436,-4.8594,-4.8614,-4.8605,-4.8594,-4.8614,-4.8616,-4.8645,-4.8624,-4.8563,-4.8561,-4.8558,-4.8556,0,-4.8243,-4.8205,-4.8375,-4.838,-4.8384,-4.8507,-4.8511,-4.8604,-4.8584,-4.8709,-4.8735,-4.8704,-4.8803,-4.8762,-4.8867,-4.8843,-4.9045,-4.9007,-4.9034,-4.9024,-4.9175,-4.9162,-4.9669,-4.9732,-4.9266,-4.927,-4.9274,0,-4.8472,-4.8586,-4.8602,-4.866,-4.8679,-4.8774,-4.8826,-4.8763,-4.8822,-4.8868,-4.8956,-4.9046,-4.9115,-4.9279,-4.9266,-4.9346,-4.9309,-4.9481,-4.9321,-4.9337,-4.9312,-4.9307,-4.9318,-4.9514,-4.9519,-4.9524,-4.9527,0,-4.8882,-4.8857,-4.8935,-4.9007,-4.9071,-4.9125,-4.917,-4.9224,-4.9163,-4.9233,-4.9332,-4.9386,-4.9492,-4.9583,-4.9653,-4.9665,-4.9588,-4.9578,-4.9616,-4.9639,-4.965,-4.9646,-4.9123,-4.9567,-4.9563,-4.956,-4.9558,-4.9556,-4.9185,-4.928,-4.9307,-4.9397,-4.9424,-4.9468,-4.9555,-4.9545,-4.9627,-4.9708,-4.9665,-4.9781,-4.9811,-4.9897,-4.9921,-5.001,-4.9943,-4.9999,-5.0013,-5.0028,-5.0048,-4.9635,-5.0023,-5.0022,-5.002,-5.002,-5.0019,0,-4.959,-4.96,-4.9684,-4.975,-4.9821,-4.9738,-4.9784,-4.9849,-4.9952,-4.9986,-5.0055,-5.0169,-5.0256,-5.025,-5.033,-5.0404,-5.037,-5.0427,-5.0421,-5.0426,-5.0104,-5.0062,-5.0453,-5.0453,-5.0453,-5.0453,-5.0453,-5.0452,-4.9809,-4.9966,-4.9945,-5.0114,-5.0123,-5.0235,-5.0268,-5.0309,-5.0335,-5.0466,-5.0538,-5.0532,-5.055,-5.0631,-5.0708,-5.0703,-5.0738,-5.0809,-5.0792,-5.0491,-5.0448,-5.0407,-5.0368,-5.0817,-5.0817,-5.1106,-5.1109,-5.1111]},{"header":{"parameterUnit":"m.s-1","parameterCategory":1,"la1":30.2991,"la2":30.254,"lo1":-89.0895,"lo2":-89.0444,"dy":0.0017,"dx":0.0017,"nx":28,"ny":28,"refTime":"2024-10-15T21:00:00:Z","depth":0,"parameterNumber":3,"parameterNumberName":"V-component_of_WINDS"},"data":[0,0,0,0,0,0,0,0,0,0,0,0,0,0,0,0,0,0,0,0,0,0,0,0,0,0,0,0,0,0,0,0,0,0,0,0,0,0,0,0,0,0,0,0,0,0,0,0,0,0,0,0,0,0,0,0,0,0,-3.7395,-3.7396,0,-3.7427,-3.7428,-3.7428,-3.7408,-3.7407,-3.7406,-3.7405,-3.7436,-3.7437,-3.7439,0,0,0,0,0,0,0,0,0,0,0,0,0,-3.7313,-3.7314,-3.7395,-3.7396,-3.7396,-3.7427,-3.7428,-3.7428,-3.7408,-3.7407,-3.7406,-3.7405,-3.7435,-3.7437,-3.7439,0,0,0,0,0,0,0,0,0,0,0,0,0,-3.7347,-3.7315,-3.7395,-3.739,-3.739,-3.7427,-3.7428,-3.7428,-3.7408,-3.7407,-3.7405,-3.7404,-3.7434,-3.7437,-3.7439,-3.7483,0,0,-3.7447,-3.7448,0,0,0,0,0,0,0,0,-3.7345,-3.735,-3.739,-3.739,-3.739,-3.7412,-3.741,-3.7447,-3.7409,-3.7401,-3.7405,-3.7403,-3.7429,-3.7432,-3.7441,-3.7485,-3.7486,-3.7447,-3.7449,-3.745,-3.7451,0,0,0,0,0,0,0,-3.7343,-3.7349,-3.7408,-3.7391,-3.7391,-3.7384,-3.7388,-3.7417,-3.7422,-3.7402,-3.74,-3.7404,-3.7428,-3.7438,-3.7441,-3.7486,-3.7447,-3.745,-3.7451,-3.7452,-3.7564,-3.7565,0,0,0,0,0,0,-3.7341,-3.7347,-3.7407,-3.7409,-3.7364,-3.7387,-3.7391,-3.7406,-3.7422,-3.7423,-3.7406,-3.7403,-3.7435,-3.7438,-3.7442,-3.7492,-3.745,-3.7452,-3.7454,-3.7562,-3.7564,-3.7566,0,0,0,0,0,0,-3.734,-3.7347,-3.7406,-3.7377,-3.7384,-3.739,-3.7408,-3.7408,-3.7418,-3.7425,-3.7426,-3.7415,-3.7434,-3.7439,-3.7472,-3.7492,-3.7453,-3.7456,-3.7561,-3.7563,-3.7565,-3.7593,0,0,0,0,0,0,-3.7337,-3.7346,-3.7364,-3.7378,-3.7386,-3.7436,-3.7409,-3.741,-3.7422,-3.742,-3.7434,-3.7435,-3.7433,-3.7469,-3.7475,-3.7495,-3.7458,-3.7559,-3.7562,-3.7564,-3.759,-3.7595,-3.76,0,0,0,0,0,-3.7334,-3.7371,-3.7365,-3.7373,-3.7409,-3.7438,-3.7442,-3.744,-3.7424,-3.7441,-3.7445,-3.7434,-3.749,-3.7472,-3.7479,-3.7501,-3.7557,-3.7561,-3.7564,-3.7588,-3.7594,-3.76,0,0,0,0,0,0,-3.736,-3.7373,-3.7367,-3.7409,-3.7422,-3.7434,-3.7456,-3.7448,-3.7465,-3.7462,-3.7458,-3.7461,-3.7496,-3.7502,-3.7482,-3.7542,-3.7521,-3.7526,-3.7536,-3.7543,-3.7548,-3.7545,-3.746,0,0,0,0,0,-3.737,-3.7394,-3.7404,-3.744,-3.7447,-3.745,-3.7463,-3.746,-3.7473,-3.7479,-3.7486,-3.7498,-3.7518,-3.7531,-3.755,-3.7591,-3.7592,-3.7609,-3.7614,-3.7618,-3.7622,-3.7641,-3.7647,-3.7576,-3.7576,-3.7576,0,0,-3.7392,-3.7402,-3.7418,-3.7446,-3.7456,-3.7478,-3.7455,-3.7481,-3.7497,-3.7482,-3.7514,-3.7519,-3.7533,-3.7569,-3.7586,-3.7576,-3.7642,-3.7623,-3.7626,-3.7627,-3.7645,-3.7651,-3.7657,-3.7578,-3.7578,-3.7578,0,0,-3.7443,-3.7455,-3.7485,-3.7495,-3.751,-3.7511,-3.7518,-3.7531,-3.7534,-3.7565,-3.7554,-3.7573,-3.7608,-3.7617,-3.7626,-3.7678,-3.7667,-3.7684,-3.771,-3.7729,-3.7734,-3.7739,-3.7755,-3.7761,-3.7688,-3.7688,-3.7688,0,-3.7468,-3.7503,-3.7501,-3.7526,-3.7538,-3.7525,-3.7554,-3.7564,-3.7584,-3.7592,-3.758,-3.7622,-3.763,-3.7667,-3.7679,-3.7689,-3.7694,-3.7682,-3.7734,-3.7739,-3.7743,-3.7758,-3.7764,-3.769,-3.769,-3.7689,-3.7689,0,-3.7531,-3.7555,-3.7578,-3.7597,-3.7611,-3.7638,-3.7638,-3.7652,-3.7648,-3.765,-3.768,-3.769,-3.7709,-3.7718,-3.7714,-3.7754,-3.7746,-3.7735,-3.7713,-3.7752,-3.7765,-3.7771,-3.7692,-3.7692,-3.7691,-3.7691,0,0,-3.76,-3.7616,-3.7624,-3.7631,-3.7645,-3.7663,-3.7689,-3.7707,-3.7718,-3.7732,-3.7752,-3.7781,-3.7769,-3.7779,-3.7776,-3.7793,-3.7829,-3.7778,-3.7779,-3.7785,-3.7869,-3.7876,-3.7883,-3.7823,-3.7824,-3.7825,-3.7867,0,-3.7649,-3.7694,-3.7691,-3.7732,-3.7752,-3.774,-3.7762,-3.7772,-3.7774,-3.7791,-3.7793,-3.7812,-3.7797,-3.7803,-3.7819,-3.7821,-3.7845,-3.7819,-3.7839,-3.7839,-3.7833,-3.7891,-3.7899,-3.7938,-3.7873,-3.7874,-3.7875,0,-3.7713,-3.7728,-3.7771,-3.778,-3.7788,-3.7808,-3.7823,-3.784,-3.785,-3.785,-3.7861,-3.7854,-3.7878,-3.7857,-3.7888,-3.787,-3.7878,-3.788,-3.7882,-3.7881,-3.7858,-3.789,-3.7951,-3.7956,-3.7883,-3.7883,-3.7882,0,-3.7754,-3.7786,-3.7814,-3.7821,-3.7833,-3.7846,-3.7852,-3.7861,-3.7871,-3.7885,-3.7891,-3.7907,-3.7915,-3.7927,-3.7924,-3.791,-3.7955,-3.7934,-3.7954,-3.7954,-3.7962,-3.7961,-3.8023,-3.7972,-3.7972,-3.7971,-3.7971,0,-3.7808,-3.7834,-3.7833,-3.785,-3.7878,-3.7874,-3.7902,-3.7905,-3.7913,-3.793,-3.7921,-3.7936,-3.7933,-3.7948,-3.7946,-3.797,-3.7975,-3.7974,-3.7973,-3.7973,-3.7973,-3.7977,-3.7973,-3.7973,-3.7973,-3.7972,-3.7972,0,-3.7859,-3.7859,-3.7889,-3.7897,-3.7899,-3.7919,-3.7925,-3.7941,-3.7942,-3.7963,-3.7968,-3.7969,-3.7986,-3.7985,-3.8004,-3.8003,-3.8032,-3.8029,-3.8028,-3.8026,-3.8045,-3.8042,-3.8109,-3.8117,-3.8063,-3.8063,-3.8064,0,-3.7892,-3.7911,-3.7921,-3.7931,-3.7937,-3.7954,-3.7964,-3.7961,-3.7971,-3.7983,-3.7997,-3.8013,-3.8026,-3.8053,-3.8055,-3.8069,-3.8065,-3.8087,-3.8067,-3.8066,-3.8062,-3.806,-3.806,-3.8091,-3.8091,-3.8092,-3.8092,0,-3.795,-3.7948,-3.7964,-3.7978,-3.799,-3.8001,-3.8011,-3.802,-3.8017,-3.8029,-3.8046,-3.8056,-3.8075,-3.809,-3.8104,-3.8108,-3.8099,-3.8099,-3.8104,-3.8103,-3.8101,-3.81,-3.8036,-3.8097,-3.8097,-3.8096,-3.8096,-3.8096,-3.7991,-3.8006,-3.8014,-3.803,-3.8037,-3.8046,-3.806,-3.8063,-3.8077,-3.8092,-3.8089,-3.8107,-3.8115,-3.8131,-3.8137,-3.815,-3.8142,-3.8149,-3.8151,-3.8152,-3.8153,-3.8101,-3.8153,-3.8153,-3.8153,-3.8153,-3.8152,0,-3.8046,-3.805,-3.8065,-3.8078,-3.809,-3.8082,-3.8092,-3.8102,-3.8118,-3.8126,-3.8138,-3.8156,-3.8171,-3.8173,-3.8186,-3.8196,-3.8192,-3.82,-3.8198,-3.8198,-3.8161,-3.8154,-3.8202,-3.8202,-3.8202,-3.8202,-3.8202,-3.8202,-3.8076,-3.81,-3.8099,-3.8126,-3.813,-3.8147,-3.8153,-3.8161,-3.8167,-3.8187,-3.8199,-3.82,-3.8206,-3.8219,-3.8231,-3.8231,-3.8235,-3.8243,-3.8242,-3.8206,-3.8201,-3.8196,-3.819,-3.8245,-3.8245,-3.8278,-3.8278,-3.8278]}]]